Location: Bridgewater
(44.3670°N, 64.5170°W)
Time: 09:04:17
(UTC-04:00)

Amateur Radio Satellites - All Passes

Search period start: 27 November 2014 08:34
Search period end: 28 November 2014 08:34
Location: Bridgewater, 44.3670°N, 64.5170°W

Satellite Date Start Highest point End Downlink Frequencies (MHz)
Time Altitude Azimuth
UNISAT 6 27 Nov 08:37:57 08:38:47 11° 59° (ENE) 08:39:38 437.425
GOMX 1 27 Nov 08:49:06 08:52:28 23° 95° (E) 08:55:53 467.674
SEEDS 27 Nov 08:53:39 08:57:33 33° 97° (E) 09:01:25 437.485
UKube-1 27 Nov 08:55:26 08:56:42 11° 89° (E) 08:57:58 .
GONETS M04 27 Nov 09:02:53 09:11:38 67° 282° (WNW) 09:20:28
Oscar 11 27 Nov 09:04:17 09:07:12 17° 92° (E) 09:10:06 145.826/435.025
ANTELSAT 27 Nov 09:04:20 09:07:24 20° 64° (ENE) 09:10:30 437.575/2403.000
DELFI C3 27 Nov 09:07:36 09:10:04 15° 91° (E) 09:12:31 145.870
POLYITAN 1 27 Nov 09:07:48 09:10:18 16° 62° (ENE) 09:12:48 437.675
AAUSAT CUBESAT 2 27 Nov 09:07:51 09:11:45 35° 97° (E) 09:15:39 437.432
HO-68 27 Nov 09:08:17 09:15:23 59° 102° (ESE) 09:22:24 435.675
QB50P2 27 Nov 09:09:10 09:11:46 16° 63° (ENE) 09:14:21 145.880/145.840
DUCHIFAT 1 27 Nov 09:14:05 09:16:54 18° 64° (ENE) 09:19:42 145.980
CANX-2 27 Nov 09:23:18 09:27:37 88° 103° (ESE) 09:31:56 2200.000
BRITE-PL 27 Nov 09:23:48 09:27:58 78° 102° (ESE) 09:32:10 437.365/2234.400
COMPASS 1 27 Nov 09:23:52 09:28:06 61° 101° (E) 09:32:18 437.405
UWE-3 27 Nov 09:28:29 09:31:11 16° 92° (E) 09:33:54 435.000/436.395/437.385
DX 1 27 Nov 09:30:17 09:34:01 27° 96° (E) 09:37:43 434.975-435.025
CUBEBUG 2 27 Nov 09:30:39 09:33:47 20° 93° (E) 09:36:58 437.445
NANOSAT C BR1 27 Nov 09:32:50 09:36:23 27° 67° (ENE) 09:39:57 145.865
DOVE 4 27 Nov 09:38:21 09:42:29 60° 101° (E) 09:46:44 437.250
QB50P1 27 Nov 09:42:36 09:46:26 33° 69° (ENE) 09:50:15 145.935-145.965
BUGSAT 1 27 Nov 09:46:19 09:50:03 31° 68° (ENE) 09:53:46 437.445
TIGRISAT 27 Nov 09:56:17 10:00:29 65° 74° (ENE) 10:04:43 435.000
CUTE 1.7 + AOD 2 27 Nov 09:58:00 10:02:04 43° 289° (WNW) 10:06:08 437.475
ZACube-1 27 Nov 09:59:48 10:03:32 29° 96° (E) 10:07:19 437.345
CINEMA 3 27 Nov 10:04:23 10:08:36 71° 102° (ESE) 10:12:57 145.822/145.860
VELOX 1 27 Nov 10:06:11 10:09:37 22° 94° (E) 10:13:01 145.980
POPSAT HIP 1 27 Nov 10:07:10 10:11:21 61° 73° (ENE) 10:15:33 437.405
UNISAT 6 27 Nov 10:10:39 10:14:55 86° 257° (WSW) 10:19:13 437.425
GOMX 1 27 Nov 10:26:59 10:30:40 31° 291° (WNW) 10:34:24 467.674
UKube-1 27 Nov 10:29:02 10:33:23 73° 286° (WNW) 10:37:41 .
SEEDS 27 Nov 10:29:48 10:33:14 24° 293° (WNW) 10:36:40 437.485
AISAT 27 Nov 10:32:45 10:36:57 41° 99° (E) 10:41:07 437.250
FUNcube-1 27 Nov 10:34:08 10:38:22 69° 102° (ESE) 10:42:40 145.935
Oscar 11 27 Nov 10:39:26 10:43:37 47° 288° (WNW) 10:47:47 145.826/435.025
ANTELSAT 27 Nov 10:39:55 10:43:57 41° 262° (W) 10:48:01 437.575/2403.000
CUBEBUG 1 27 Nov 10:41:17 10:44:24 19° 92° (E) 10:47:29 437.445
DELFI C3 27 Nov 10:41:39 10:45:39 48° 288° (WNW) 10:49:38 145.870
POLYITAN 1 27 Nov 10:41:39 10:45:50 56° 259° (W) 10:50:01 437.675
QB50P2 27 Nov 10:43:07 10:47:17 53° 260° (W) 10:51:28 145.880/145.840
AAUSAT CUBESAT 2 27 Nov 10:43:57 10:47:15 22° 294° (WNW) 10:50:33 437.432
50 SAT 27 Nov 10:48:04 10:52:01 49° 100° (E) 10:55:59 437.505
DUCHIFAT 1 27 Nov 10:48:19 10:52:25 48° 260° (W) 10:56:33 145.980
SO-50 27 Nov 10:55:49 10:59:51 25° 41° (NE) 11:03:56 436.795
HO-68 27 Nov 10:56:35 11:02:41 31° 301° (WNW) 11:08:46 435.675
COMPASS 1 27 Nov 11:01:04 11:03:21 14° 298° (WNW) 11:05:39 437.405
CANX-2 27 Nov 11:02:04 11:02:53 11° 301° (WNW) 11:03:42 2200.000
UWE-3 27 Nov 11:03:54 11:07:59 48° 288° (WNW) 11:12:10 435.000/436.395/437.385
BRITE-PL 27 Nov 11:05:04 11:05:55 11° 300° (WNW) 11:06:46 437.365/2234.400
GONETS M04 27 Nov 11:05:48 11:10:28 15° 306° (NW) 11:15:11
DX 1 27 Nov 11:06:27 11:10:14 30° 293° (WNW) 11:14:00 434.975-435.025
CUBEBUG 2 27 Nov 11:06:42 11:10:39 39° 289° (WNW) 11:14:42 437.445
NANOSAT C BR1 27 Nov 11:08:28 11:12:12 29° 264° (W) 11:15:56 145.865
HUMSAT D 27 Nov 11:08:29 11:12:40 81° 284° (WNW) 11:16:53 437.325/437.525
DOVE 4 27 Nov 11:17:43 11:19:51 14° 298° (WNW) 11:22:00 437.250
QB50P1 27 Nov 11:18:59 11:22:23 23° 266° (W) 11:25:48 145.935-145.965
BUGSAT 1 27 Nov 11:22:01 11:25:33 25° 265° (W) 11:29:05 437.445
YUBILEINY 27 Nov 11:26:21 11:30:26 14° 53° (NE) 11:34:28 435.215
TIGRISAT 27 Nov 11:36:10 11:37:43 12° 271° (W) 11:39:16 435.000
ZACube-1 27 Nov 11:36:17 11:39:51 27° 292° (WNW) 11:43:27 437.345
VELOX 1 27 Nov 11:42:14 11:46:21 38° 291° (WNW) 11:50:25 145.980
CINEMA 3 27 Nov 11:43:34 11:45:19 12° 299° (WNW) 11:47:05 145.822/145.860
TISAT 1 27 Nov 11:45:04 11:48:27 23° 94° (E) 11:51:47 437.305
Oscar 19 27 Nov 11:45:12 11:48:58 21° 62° (ENE) 11:52:45 437.125/150
ESTCUBE 1 27 Nov 11:45:32 11:50:07 88° 284° (WNW) 11:54:38 437.505/2401.250
POPSAT HIP 1 27 Nov 11:45:43 11:47:40 13° 270° (W) 11:49:37 437.405
SPROUT 27 Nov 11:59:05 12:02:50 29° 96° (E) 12:06:34 437.525
AISAT 27 Nov 12:10:00 12:13:20 21° 296° (WNW) 12:16:39 437.250
FUNcube-1 27 Nov 12:12:19 12:14:13 13° 298° (WNW) 12:16:07 145.935
CUBEBUG 1 27 Nov 12:16:51 12:21:00 43° 289° (WNW) 12:25:05 437.445
50 SAT 27 Nov 12:24:29 12:26:58 16° 296° (WNW) 12:29:27 437.505
SO-50 27 Nov 12:35:58 12:40:45 58° 240° (WSW) 12:45:33 436.795
ITAMSAT 1 27 Nov 12:40:50 12:45:10 27° 64° (ENE) 12:49:31 435.822/435.867
CUSAT 1 27 Nov 12:49:57 12:52:29 46° 97° (E) 12:55:02 437.405
AUBIESAT-1 27 Nov 13:11:23 13:15:43 30° 100° (E) 13:19:56 437.475
ITUPSAT 1 27 Nov 13:11:41 13:15:53 29° 96° (E) 13:20:03 437.325
M-CUBED/EXP-1 PRIME 27 Nov 13:17:31 13:22:07 38° 102° (ESE) 13:26:36 437.505
TISAT 1 27 Nov 13:20:34 13:24:21 33° 291° (WNW) 13:28:06 437.305
YUBILEINY 27 Nov 13:20:42 13:29:21 63° 77° (ENE) 13:37:55 435.215
Gurwin Techsat 1B 27 Nov 13:21:06 13:25:54 36° 67° (ENE) 13:30:43 435.225
SWISSCUBE 27 Nov 13:21:49 13:26:21 40° 98° (E) 13:30:50 437.505
DANDE 27 Nov 13:22:23 13:25:03 58° 281° (WNW) 13:27:38 436.750
Oscar 19 27 Nov 13:22:55 13:27:55 55° 260° (W) 13:32:58 437.125/150
ESTCUBE 1 27 Nov 13:25:00 13:26:15 11° 302° (WNW) 13:27:31 437.505/2401.250
AO-7 27 Nov 13:30:09 13:35:51 21° 47° (NE) 13:41:34 29.400- 29.500
SPROUT 27 Nov 13:35:14 13:38:51 27° 293° (WNW) 13:42:27 437.525
BEESAT 27 Nov 13:52:24 13:57:13 75° 103° (ESE) 14:01:59 436.000
KKS-1 27 Nov 13:55:32 13:58:31 18° 92° (E) 14:01:29 437.445
HORYU 2 27 Nov 14:12:26 14:16:38 44° 70° (ENE) 14:20:51 437.375
ITAMSAT 1 27 Nov 14:19:32 14:24:27 42° 262° (W) 14:29:25 435.822/435.867
RS-15 27 Nov 14:33:12 14:41:24 25° 102° (ESE) 14:49:34 29.354- 29.394
PHONESAT 2.4 27 Nov 14:34:32 14:37:31 23° 158° (SSE) 14:40:30 2401.200-2431.200
MaSat-1 27 Nov 14:37:43 14:40:21 30° 113° (ESE) 14:42:47 437.345
VERMONT LUNAR 27 Nov 14:39:02 14:42:11 28° 162° (SSE) 14:45:21 437.305
AUBIESAT-1 27 Nov 14:46:12 14:50:42 36° 297° (WNW) 14:55:06 437.475
STARS 27 Nov 14:47:11 14:51:21 40° 98° (E) 14:55:29 437.465
ITUPSAT 1 27 Nov 14:49:29 14:53:47 33° 293° (WNW) 14:58:03 437.325
M-CUBED/EXP-1 PRIME 27 Nov 14:52:43 14:57:00 30° 299° (WNW) 15:01:14 437.505
JAS-2 27 Nov 14:56:21 15:01:53 22° 55° (NE) 15:07:25 435.910
SWISSCUBE 27 Nov 15:00:07 15:04:00 25° 296° (WNW) 15:07:52 437.505
Gurwin Techsat 1B 27 Nov 15:01:09 15:05:52 32° 264° (W) 15:10:37 435.225
YUBILEINY 27 Nov 15:18:21 15:25:32 30° 278° (W) 15:32:41 435.215
AO-7 27 Nov 15:19:08 15:27:24 79° 69° (ENE) 15:35:45 29.400- 29.500
O/OREOS (USA 219) 27 Nov 15:23:02 15:27:31 69° 65° (ENE) 15:31:58 437.305
KKS-1 27 Nov 15:31:09 15:35:26 48° 289° (WNW) 15:39:41 437.445
BEESAT 27 Nov 15:31:50 15:34:27 15° 301° (WNW) 15:37:04 436.000
HORYU 2 27 Nov 15:50:22 15:53:31 19° 267° (W) 15:56:43 437.375
PHONESAT 2.4 27 Nov 16:12:19 16:15:53 44° 174° (S) 16:19:27 2401.200-2431.200
MaSat-1 27 Nov 16:13:48 16:14:54 12° 307° (NW) 16:15:58 437.345
CUTE-I 27 Nov 16:14:24 16:17:37 16° 58° (ENE) 16:20:51 437.470
VERMONT LUNAR 27 Nov 16:16:49 16:20:18 45° 179° (S) 16:23:47 437.305
STARS 27 Nov 16:24:16 16:27:35 21° 296° (WNW) 16:30:54 437.465
JAS-2 27 Nov 16:38:07 16:45:50 85° 74° (ENE) 16:53:45 435.910
RS-15 27 Nov 16:41:18 16:52:17 88° 304° (NW) 17:03:20 29.354- 29.394
MOZHAYETS 4 27 Nov 16:47:10 16:51:25 34° 96° (E) 16:55:39
O/OREOS (USA 219) 27 Nov 17:04:26 17:06:18 13° 262° (W) 17:08:10 437.305
Cubesat XI-IV 27 Nov 17:11:01 17:16:09 48° 69° (ENE) 17:21:17 437.490
AO-7 27 Nov 17:14:41 17:21:01 24° 268° (W) 17:27:24 29.400- 29.500
GONETS M04 27 Nov 17:16:14 17:21:13 16° 55° (NE) 17:26:09
PRISM 27 Nov 17:24:30 17:26:50 14° 91° (E) 17:29:08 437.425
PHONESAT 2.4 27 Nov 17:50:54 17:54:22 38° 192° (SSW) 17:57:51 2401.200-2431.200
CUTE-I 27 Nov 17:51:40 17:57:02 80° 256° (WSW) 18:02:25 437.470
VERMONT LUNAR 27 Nov 17:55:12 17:58:27 31° 196° (SSW) 18:01:41 437.305
HO-68 27 Nov 17:56:44 17:59:03 12° 45° (NE) 18:01:21 435.675
STRAND 1 27 Nov 18:07:50 18:11:15 18° 91° (E) 18:14:38 437.568
MOZHAYETS 4 27 Nov 18:24:36 18:28:32 27° 293° (WNW) 18:32:26
JAS-2 27 Nov 18:26:04 18:31:40 22° 273° (W) 18:37:24 435.910
CUBESAT XI-V 27 Nov 18:33:27 18:37:39 32° 96° (E) 18:41:47 437.345
AIST 1 27 Nov 18:34:59 18:37:35 16° 85° (E) 18:40:12
Cubesat XI-IV 27 Nov 18:52:09 18:56:28 24° 267° (W) 19:00:47 437.490
RS-15 27 Nov 18:56:35 19:06:17 35° 332° (NNW) 19:16:11 29.354- 29.394
PRISM 27 Nov 18:58:34 19:02:43 54° 288° (WNW) 19:06:50 437.425
BRITE-PL 27 Nov 19:00:39 19:02:55 14° 62° (ENE) 19:05:08 437.365/2234.400
GONETS M04 27 Nov 19:11:07 19:19:58 70° 79° (ENE) 19:28:41
CUTE 1.7 + AOD 2 27 Nov 19:18:19 19:21:05 17° 64° (ENE) 19:23:52 437.475
PCSat 27 Nov 19:23:30 19:28:48 60° 116° (ESE) 19:34:09 145.827
PHONESAT 2.4 27 Nov 19:30:18 19:32:36 16° 208° (SSW) 19:34:54 2401.200-2431.200
VERMONT LUNAR 27 Nov 19:35:19 19:36:14 11° 212° (SSW) 19:37:10 437.305
CUTE-I 27 Nov 19:37:15 19:37:56 10° 274° (W) 19:38:36 437.470
HO-68 27 Nov 19:38:15 19:45:09 52° 66° (ENE) 19:52:04 435.675
BEESAT 3 27 Nov 19:40:11 19:44:04 42° 118° (ESE) 19:48:01 437.485
STRAND 1 27 Nov 19:45:48 19:50:51 60° 288° (WNW) 19:55:50 437.568
SEEDS 27 Nov 19:48:00 19:51:38 29° 68° (ENE) 19:55:18 437.485
UKube-1 27 Nov 19:52:11 19:54:22 14° 60° (ENE) 19:56:33 .
BEESAT 2 27 Nov 19:56:56 20:00:59 58° 120° (ESE) 20:05:06 435.950
GOMX 1 27 Nov 19:58:52 20:03:03 34° 70° (ENE) 20:07:01 467.674
DELFI C3 27 Nov 19:59:06 20:01:04 13° 62° (ENE) 20:03:02 145.870
AAUSAT CUBESAT 2 27 Nov 20:01:07 20:04:46 30° 69° (ENE) 20:08:26 437.432
Oscar 11 27 Nov 20:01:16 20:04:08 18° 63° (ENE) 20:07:01 145.826/435.025
AIST 1 27 Nov 20:10:31 20:14:48 50° 282° (WNW) 20:19:08
CUBESAT XI-V 27 Nov 20:11:00 20:15:00 29° 293° (WNW) 20:18:57 437.345
COMPASS 1 27 Nov 20:17:15 20:21:17 51° 73° (ENE) 20:25:22 437.405
CANX-2 27 Nov 20:17:59 20:22:11 78° 76° (ENE) 20:26:26 2200.000
DX 1 27 Nov 20:27:39 20:31:29 31° 67° (ENE) 20:35:20 434.975-435.025
UWE-3 27 Nov 20:28:12 20:30:55 17° 64° (ENE) 20:33:37 435.000/436.395/437.385
CUBEBUG 2 27 Nov 20:31:21 20:34:30 21° 66° (ENE) 20:37:37 437.445
BRITE-PL 27 Nov 20:36:01 20:40:58 77° 258° (WSW) 20:45:33 437.365/2234.400
AIST 2 27 Nov 20:39:23 20:43:37 78° 123° (ESE) 20:47:55 435.215
DOVE 4 27 Nov 20:45:47 20:50:19 76° 75° (ENE) 20:54:38 437.250
CUTE 1.7 + AOD 2 27 Nov 20:52:36 20:56:40 48° 261° (W) 21:00:47 437.475
ZACube-1 27 Nov 20:58:03 21:01:40 29° 68° (ENE) 21:05:16 437.345
VELOX 1 27 Nov 21:05:52 21:09:32 25° 66° (ENE) 21:13:12 145.980
CINEMA 3 27 Nov 21:08:04 21:12:25 79° 76° (ENE) 21:16:39 145.822/145.860
PCSat 27 Nov 21:08:07 21:12:36 26° 316° (NW) 21:17:08 145.827
GONETS M04 27 Nov 21:09:00 21:15:59 27° 279° (W) 21:22:56
ESTCUBE 1 27 Nov 21:13:04 21:15:06 13° 59° (ENE) 21:17:09 437.505/2401.250
RS-15 27 Nov 21:14:13 21:23:03 26° 7° (N) 21:32:05 29.354- 29.394
BEESAT 3 27 Nov 21:19:02 21:22:27 24° 317° (NW) 21:25:56 437.485
SEEDS 27 Nov 21:23:58 21:27:28 26° 265° (W) 21:31:00 437.485
UKube-1 27 Nov 21:25:40 21:30:00 69° 258° (WSW) 21:34:22 .
HO-68 27 Nov 21:26:44 21:33:05 33° 264° (W) 21:39:29 435.675
DELFI C3 27 Nov 21:31:51 21:35:52 61° 259° (W) 21:39:57 145.870
FUNcube-1 27 Nov 21:31:56 21:36:05 66° 74° (ENE) 21:40:13 145.935
AISAT 27 Nov 21:32:34 21:36:51 47° 71° (ENE) 21:41:09 437.250
Oscar 11 27 Nov 21:35:47 21:39:56 48° 261° (W) 21:44:09 145.826/435.025
BEESAT 2 27 Nov 21:36:30 21:39:37 20° 320° (NW) 21:42:47 435.950
AAUSAT CUBESAT 2 27 Nov 21:37:03 21:40:28 24° 266° (W) 21:43:54 437.432
GOMX 1 27 Nov 21:37:19 21:41:13 26° 265° (W) 21:44:56 467.674
50 SAT 27 Nov 21:38:44 21:42:29 39° 71° (ENE) 21:46:15 437.505
CUBEBUG 1 27 Nov 21:39:28 21:42:49 21° 65° (ENE) 21:46:09 437.445
TIGRISAT 27 Nov 21:48:15 21:50:07 12° 90° (E) 21:51:59 435.000
COMPASS 1 27 Nov 21:54:59 21:57:20 15° 270° (W) 21:59:43 437.405
UNISAT 6 27 Nov 22:01:59 22:05:03 18° 92° (E) 22:08:08 437.425
HUMSAT D 27 Nov 22:02:24 22:06:32 89° 80° (E) 22:10:41 437.325/437.525
UWE-3 27 Nov 22:03:05 22:07:09 47° 261° (W) 22:11:11 435.000/436.395/437.385
DX 1 27 Nov 22:03:59 22:07:43 27° 264° (W) 22:11:28 434.975-435.025
CUBEBUG 2 27 Nov 22:07:05 22:11:01 37° 262° (W) 22:14:54 437.445
DANDE 27 Nov 22:17:48 22:19:41 12° 69° (ENE) 22:21:44 436.750
AIST 2 27 Nov 22:19:54 22:22:47 17° 323° (NW) 22:25:41 435.215
POLYITAN 1 27 Nov 22:26:40 22:29:54 21° 94° (E) 22:33:07 437.675
DOVE 4 27 Nov 22:27:28 22:28:33 11° 271° (W) 22:29:38 437.250
QB50P2 27 Nov 22:27:52 22:31:09 22° 94° (E) 22:34:25 145.880/145.840
ANTELSAT 27 Nov 22:30:12 22:34:17 34° 97° (E) 22:38:27 437.575/2403.000
DUCHIFAT 1 27 Nov 22:32:31 22:35:56 23° 94° (E) 22:39:20 145.980
ZACube-1 27 Nov 22:34:32 22:38:03 26° 265° (W) 22:41:32 437.345
TISAT 1 27 Nov 22:39:39 22:43:01 23° 66° (ENE) 22:46:23 437.305
VELOX 1 27 Nov 22:41:53 22:45:58 34° 263° (W) 22:50:04 145.980
ESTCUBE 1 27 Nov 22:46:47 22:51:21 79° 257° (WSW) 22:55:56 437.505/2401.250
NANOSAT C BR1 27 Nov 22:51:53 22:55:50 38° 98° (E) 22:59:46 145.865
SPROUT 27 Nov 22:55:10 22:58:53 29° 68° (ENE) 23:02:37 437.525
ISS 27 Nov 22:55:28 22:58:34 40° 141° (SE) 23:01:41 145.825
QB50P1 27 Nov 23:01:58 23:06:05 49° 100° (E) 23:10:10 145.935-145.965
BUGSAT 1 27 Nov 23:02:31 23:06:22 40° 98° (E) 23:10:11 437.445
AISAT 27 Nov 23:10:38 23:13:44 18° 268° (W) 23:16:50 437.250
FUNcube-1 27 Nov 23:11:38 23:12:54 11° 271° (W) 23:14:10 145.935
CUBEBUG 1 27 Nov 23:14:43 23:18:56 42° 262° (W) 23:23:09 437.445
50 SAT 27 Nov 23:15:14 23:17:58 18° 268° (W) 23:20:43 437.505
TIGRISAT 27 Nov 23:22:53 23:27:18 70° 286° (WNW) 23:31:49 435.000
CUSAT 1 27 Nov 23:24:04 23:28:43 56° 78° (ENE) 23:34:57 437.405
BEESAT 27 Nov 23:25:46 23:28:09 14° 59° (ENE) 23:30:33 436.000
POPSAT HIP 1 27 Nov 23:26:59 23:31:13 87° 284° (WNW) 23:35:26 437.405
RS-15 27 Nov 23:28:20 23:39:01 48° 40° (NE) 23:50:06 29.354- 29.394
UNISAT 6 27 Nov 23:37:48 23:42:05 48° 288° (WNW) 23:46:27 437.425
DANDE 27 Nov 23:58:43 00:03:18 86° 260° (W) 00:09:34 436.750
POLYITAN 1 28 Nov 00:02:05 00:05:59 36° 290° (WNW) 00:09:51 437.675
AUBIESAT-1 28 Nov 00:02:15 00:06:16 46° 65° (ENE) 00:10:38 437.475
QB50P2 28 Nov 00:03:19 00:07:11 35° 291° (WNW) 00:11:02 145.880/145.840
ANTELSAT 28 Nov 00:07:18 00:10:58 26° 293° (WNW) 00:14:42 437.575/2403.000
DUCHIFAT 1 28 Nov 00:08:06 00:11:51 32° 291° (WNW) 00:15:36 145.980
M-CUBED/EXP-1 PRIME 28 Nov 00:08:49 00:12:55 59° 67° (ENE) 00:17:25 437.505
MaSat-1 28 Nov 00:13:58 00:16:17 76° 243° (WSW) 00:18:40 437.345
TISAT 1 28 Nov 00:14:47 00:18:41 35° 263° (W) 00:22:36 437.305
ITUPSAT 1 28 Nov 00:20:07 00:24:38 41° 69° (ENE) 00:29:10 437.325
NANOSAT C BR1 28 Nov 00:28:20 00:31:30 21° 295° (WNW) 00:34:39 145.865
SWISSCUBE 28 Nov 00:30:02 00:34:43 56° 72° (ENE) 00:39:27 437.505
SPROUT 28 Nov 00:31:14 00:34:57 28° 265° (W) 00:38:40 437.525
ISS 28 Nov 00:32:08 00:35:14 37° 340° (NNW) 00:38:20 145.825
YUBILEINY 28 Nov 00:33:08 00:36:44 13° 72° (ENE) 00:40:19 435.215
BUGSAT 1 28 Nov 00:38:45 00:41:36 19° 296° (WNW) 00:44:26 437.445
QB50P1 28 Nov 00:38:54 00:41:36 17° 297° (WNW) 00:44:19 145.935-145.965
KKS-1 28 Nov 00:55:40 00:58:58 21° 64° (ENE) 01:02:17 437.445
BEESAT 28 Nov 01:00:33 01:05:21 81° 256° (WSW) 01:10:11 436.000
CUSAT 1 28 Nov 01:08:10 01:11:46 20° 268° (W) 01:16:03 437.405
Oscar 19 28 Nov 01:32:43 01:37:42 46° 99° (E) 01:42:40 437.125/150
Gurwin Techsat 1B 28 Nov 01:37:36 01:39:31 12° 87° (E) 01:41:26 435.225
AUBIESAT-1 28 Nov 01:38:37 01:41:34 19° 264° (W) 01:44:42 437.475
RS-15 28 Nov 01:40:55 01:51:53 63° 244° (WSW) 02:03:21 29.354- 29.394
DANDE 28 Nov 01:45:44 01:46:35 10° 271° (W) 01:47:28 436.750
STARS 28 Nov 01:46:01 01:50:12 44° 71° (ENE) 01:54:23 437.465
M-CUBED/EXP-1 PRIME 28 Nov 01:46:07 01:48:28 15° 266° (W) 01:50:55 437.505
ITUPSAT 1 28 Nov 01:58:49 02:02:40 24° 266° (W) 02:06:33 437.325
SWISSCUBE 28 Nov 02:09:47 02:12:57 17° 269° (W) 02:16:08 437.505
ISS 28 Nov 02:09:50 02:12:29 22° 360° (N) 02:15:09 145.825
YUBILEINY 28 Nov 02:23:04 02:31:45 68° 93° (E) 02:40:26 435.215
PCSat 28 Nov 02:27:32 02:30:45 16° 35° (NE) 02:33:57 145.827
ITAMSAT 1 28 Nov 02:30:23 02:35:32 61° 102° (ESE) 02:40:38 435.822/435.867
KKS-1 28 Nov 02:31:07 02:35:21 43° 261° (W) 02:39:36 437.445
BEESAT 2 28 Nov 02:39:08 02:40:48 12° 32° (NNE) 02:42:28 435.950
SO-50 28 Nov 02:52:35 02:56:34 31° 115° (ESE) 03:00:41 436.795
Oscar 19 28 Nov 03:12:38 03:16:46 25° 297° (WNW) 03:20:54 437.125/150
Gurwin Techsat 1B 28 Nov 03:14:52 03:20:13 90° 104° (ESE) 03:25:32 435.225
AO-7 28 Nov 03:19:55 03:26:14 23° 91° (E) 03:32:30 29.400- 29.500
AIST 2 28 Nov 03:22:32 03:25:05 15° 35° (NE) 03:27:38 435.215
STARS 28 Nov 03:23:49 03:26:54 19° 267° (W) 03:30:01 437.465
HORYU 2 28 Nov 03:38:42 03:43:13 73° 103° (ESE) 03:47:43 437.375
ISS 28 Nov 03:46:40 03:49:46 36° 20° (NNE) 03:52:50 145.825
MOZHAYETS 4 28 Nov 03:50:50 03:55:05 38° 70° (ENE) 03:59:23
JAS-2 28 Nov 03:51:14 03:52:47 11° 80° (E) 03:54:18 435.910
RS-15 28 Nov 03:57:15 04:01:53 13° 265° (W) 04:06:37 29.354- 29.394
BEESAT 3 28 Nov 03:58:32 04:02:37 46° 50° (NE) 04:06:38 437.485
PCSat 28 Nov 04:09:47 04:15:13 68° 56° (ENE) 04:20:36 145.827
ITAMSAT 1 28 Nov 04:10:54 04:14:33 20° 299° (WNW) 04:18:12 435.822/435.867
BEESAT 2 28 Nov 04:15:46 04:19:57 62° 53° (NE) 04:24:06 435.950
PRISM 28 Nov 04:17:31 04:19:54 15° 61° (ENE) 04:22:18 437.425
YUBILEINY 28 Nov 04:21:54 04:29:17 29° 295° (WNW) 04:36:41 435.215
SO-50 28 Nov 04:32:50 04:37:03 36° 314° (NW) 04:41:24 436.795
Gurwin Techsat 1B 28 Nov 04:56:41 04:59:25 14° 303° (WNW) 05:02:09 435.225
AIST 2 28 Nov 05:00:04 05:04:24 85° 55° (NE) 05:08:40 435.215
AO-7 28 Nov 05:11:29 05:19:53 82° 291° (WNW) 05:28:15 29.400- 29.500
HORYU 2 28 Nov 05:17:06 05:19:19 14° 300° (WNW) 05:21:32 437.375
ISS 28 Nov 05:23:18 05:26:27 43° 218° (SW) 05:29:36 145.825
STRAND 1 28 Nov 05:24:58 05:29:28 31° 66° (ENE) 05:33:58 437.568
Cubesat XI-IV 28 Nov 05:27:54 05:31:10 16° 90° (E) 05:34:25 437.490
MOZHAYETS 4 28 Nov 05:28:46 05:32:26 23° 267° (W) 05:36:08
JAS-2 28 Nov 05:32:19 05:39:24 69° 101° (E) 05:45:34 435.910
O/OREOS (USA 219) 28 Nov 05:36:46 05:41:10 59° 110° (ESE) 05:45:35 437.305
BEESAT 3 28 Nov 05:37:29 05:40:32 20° 248° (WSW) 05:43:33 437.485
CUBESAT XI-V 28 Nov 05:38:27 05:42:49 39° 70° (ENE) 05:47:12 437.345
PRISM 28 Nov 05:50:50 05:54:59 58° 259° (W) 05:59:11 437.425
PCSat 28 Nov 05:54:23 05:58:04 19° 254° (WSW) 06:01:44 145.827
BEESAT 2 28 Nov 05:55:23 05:57:46 15° 250° (WSW) 06:00:07 435.950
CUTE-I 28 Nov 06:07:28 06:12:22 36° 97° (E) 06:17:12 437.470
AIST 1 28 Nov 06:16:13 06:20:26 45° 77° (ENE) 06:24:36
GONETS M04 28 Nov 06:22:34 06:27:05 15° 73° (ENE) 06:31:36
AIST 2 28 Nov 06:41:18 06:42:21 11° 253° (WSW) 06:43:24 435.215
STRAND 1 28 Nov 07:03:52 07:08:34 35° 263° (W) 07:13:17 437.568
AO-7 28 Nov 07:05:36 07:11:29 22° 312° (NW) 07:17:22 29.400- 29.500
Cubesat XI-IV 28 Nov 07:06:29 07:11:47 70° 288° (WNW) 07:17:03 437.490
CUBESAT XI-V 28 Nov 07:16:32 07:20:22 24° 267° (W) 07:24:13 437.345
O/OREOS (USA 219) 28 Nov 07:17:56 07:20:58 18° 309° (NW) 07:24:00 437.305
JAS-2 28 Nov 07:18:13 07:23:42 25° 303° (WNW) 07:28:44 435.910
CUTE-I 28 Nov 07:47:40 07:52:21 32° 295° (WNW) 07:57:01 437.470
AIST 1 28 Nov 07:54:57 07:57:42 17° 275° (W) 08:00:26
CANX-2 28 Nov 08:03:56 08:05:45 12° 89° (E) 08:07:33 2200.000
GONETS M04 28 Nov 08:13:30 08:22:16 75° 94° (E) 08:31:06
